Location: Unspecified
(0.0000°N, 0.0000°E)
Time: 07:57:24
(UTC+00:00)

Tiros 1 despin weight - Pass Details

Date: 04 October 2023
Orbit: 583 x 627 km, 48.2° (Epoch: 05 December)

Event Time Altitude Azimuth Distance (km) Brightness Sun altitude
Rises 15:28:26 0° 238° (WSW) 2,910 ? 35.0°
Reaches altitude 10° 15:31:00 10° 250° (WSW) 2,000 ? 34.3°
Maximum altitude 15:34:58 28° 309° (NW) 1,166 ? 33.3°
Drops below altitude 10° 15:38:54 10° 9° (N) 1,983 ? 32.4°
Sets 15:41:27 0° 21° (NNE) 2,880 ? 31.7°
